This is the latest recevied weather packets stored in our database for station/object N2RDT. If no packets are shown the sender has not sent any weather packets the latest 10 day(s).
| Time | Temp. | Humidity | Pressure | Rain* | Wind** | Luminosity | Snow |
|---|---|---|---|---|---|---|---|
| 1777930550 | 26.11° C | 31% | 1013.8 hPa | 0 mm | - | 374 W/m² | - |
| 1777930247 | 26.67° C | 29% | 1013.8 hPa | 0 mm | - | 396 W/m² | - |
| 1777929943 | 26.67° C | 28% | 1013.9 hPa | 0 mm | - | 418 W/m² | - |
| 1777929640 | 26.67° C | 29% | 1013.7 hPa | 0 mm | - | 438 W/m² | - |
| 1777929337 | 26.67° C | 29% | 1013.6 hPa | 0 mm | - | 457 W/m² | - |
| 1777929034 | 26.67° C | 29% | 1013.6 hPa | 0 mm | - | 477 W/m² | - |
| 1777928731 | 26.67° C | 30% | 1013.7 hPa | 0 mm | - | 496 W/m² | - |
| 1777928427 | 26.67° C | 30% | 1013.9 hPa | 0 mm | - | 513 W/m² | - |
| 1777928126 | 26.11° C | 32% | 1013.8 hPa | 0 mm | - | 531 W/m² | - |
| 1777927823 | 26.11° C | 29% | 1013.7 hPa | 0 mm | - | 548 W/m² | - |
| 1777927521 | 26.11° C | 30% | 1014 hPa | 0 mm | - | 566 W/m² | - |
| 1777927220 | 26.67° C | 29% | 1014 hPa | 0 mm | - | 586 W/m² | - |
| 1777926918 | 26.11° C | 28% | 1014.1 hPa | 0 mm | - | 603 W/m² | - |
| 1777926615 | 26.11° C | 32% | 1014 hPa | 0 mm | - | 620 W/m² | - |
| 1777926310 | 26.11° C | 31% | 1014.2 hPa | 0 mm | - | 638 W/m² | - |
| 1777926007 | 26.11° C | 33% | 1014.2 hPa | 0 mm | - | 652 W/m² | - |
| 1777925704 | 26.11° C | 32% | 1014.2 hPa | 0 mm | - | 665 W/m² | - |
| 1777925402 | 26.11° C | 32% | 1014.1 hPa | 0 mm | - | 681 W/m² | - |
| 1777925098 | 25.56° C | 30% | 1014.3 hPa | 0 mm | - | 698 W/m² | - |
| 1777924795 | 25.56° C | 30% | 1014.2 hPa | 0 mm | - | 646 W/m² | - |
| 1777924491 | 25.56° C | 31% | 1014.2 hPa | 0 mm | - | 721 W/m² | - |
| 1777924188 | 25.56° C | 31% | 1014.3 hPa | 0 mm | - | 733 W/m² | - |
| 1777923884 | 25.56° C | 31% | 1014.4 hPa | 0 mm | - | 755 W/m² | - |
| 1777923580 | 25° C | 33% | 1014.6 hPa | 0 mm | - | 769 W/m² | - |
| 1777923277 | 25.56° C | 30% | 1014.7 hPa | 0 mm | - | 778 W/m² | - |
* Rain latest hour (hover to see other rain measurements)
** Current wind speed in m/s (hover to see current wind gust speed)